Regional Weather Roundup
Issued by NWS

Home | Current Version | Previous Version | Graphics & Text | Print | Product List | Glossary On
Versions: 1 2 3 4 5 6 7 8 9 10 11 12 13 14 15 16 17 18 19 20 21 22 23 24 25 26 27 28 29 30 31 32 33 34 35 36 37 38 39 40 41 42 43 44 45 46 47 48 49 50
000
ASUS43 KLSX 020959
RWRMO

WEATHER SUMMARY FOR MISSOURI
NATIONAL WEATHER SERVICE SPRINGFIELD MO
500 AM CDT SUN AUG 02 2015

NOTE: "FAIR" INDICATES FEW OR NO CLOUDS BELOW 12,000 FEET WITH NO
       SIGNIFICANT WEATHER AND/OR OBSTRUCTIONS TO VISIBILITY.
       CURRENT SKY AND/OR WEATHER CONDITIONS ARE NOT AVAILABLE FOR
       CHILLICOTHE AND FARMINGTON.

MOZ001>031-035>038-043-044-053-054-021100-
...NORTHERN AND WESTERN MISSOURI...

CITY           SKY/WX    TMP DP  RH WIND       PRES   REMARKS
KANSAS CTY INT CLEAR     71  67  87 SW7       29.91F
KANSAS C DTWN  CLEAR     76  67  73 SW5       29.91S
LEE`S SUMMIT   CLEAR     71  66  84 SW7       29.93F
ST JOSEPH      CLEAR     71  67  87 S7        29.89F
CHILLICOTHE      N/A     67  63  87 CALM      29.91F
KIRKSVILLE     CLEAR     68  60  75 S7        29.92F

$$
MOZ066>068-077>081-088>096-101>105-021100-
...SOUTHWEST MISSOURI...

CITY           SKY/WX    TMP DP  RH WIND       PRES   REMARKS
SPRINGFIELD    PTCLDY    70  66  87 S5        29.97F
JOPLIN         PTCLDY    69  65  86 S8        29.97S

$$
MOZ032>034-039>042-045>050-055>058-069>072-021100-
...CENTRAL MISSOURI...

CITY           SKY/WX    TMP DP  RH WIND       PRES   REMARKS
COLUMBIA       CLEAR     67  66  97 S3        29.95S
JEFFERSON CITY CLEAR     67  66  97 CALM      29.94F
ROLLA          CLEAR     68  64  87 S8        29.96S
SEDALIA        CLEAR     67  64  90 S7        29.94F
WHITEMAN AFB   CLEAR     66  65  95 S5        29.92F
WARRENSBURG    CLEAR     64  63  94 S3        29.92F
OSAGE BEACH    CLEAR     68  64  88 SE3       29.96S

$$
MOZ051-052-059>065-021100-
...EAST CENTRAL MISSOURI...

CITY           SKY/WX    TMP DP  RH WIND       PRES   REMARKS
ST LOUIS INTL  MOCLDY    77  69  76 SW5       29.95F
SPIRIT OF STL  PTCLDY    71  69  93 CALM      29.93F
ST CHARLES     MOCLDY    72  70  93 CALM      29.93F

$$
MOZ072>076-082>087-097>100-106>115-021100-
...SOUTH CENTRAL AND SOUTHEAST MISSOURI...

CITY           SKY/WX    TMP DP  RH WIND       PRES   REMARKS
CAPE GIRARDEAU PTCLDY    71  70  96 CALM      29.95S
FARMINGTON     MOCLDY    72  70  94 S3        30.02S
POPLAR BLUFF   CLEAR     72  71  97 CALM      29.95S
WEST PLAINS    PTCLDY    69  65  86 CALM      30.01S

$$


USA.gov is the U.S. government's official web portal to all federal, state and local government web resources and services.